| time (UTC) | temp F | wind direction | speed MPH | gust MPH | rain 1hr in | rain 24hr in | rain mn in | humidity % | barometer mb |
| 20260504184507 | 61 | 250 | 12.0 | 20.0 | 0.00 | 0.00 | 0.00 | 80 | 1011.0 |
| 20260504183003 | 60 | 183 | 13.0 | 24.0 | 0.00 | 0.00 | 0.00 | 83 | 1011.2 |
| 20260504181604 | 60 | 241 | 11.0 | 23.0 | 0.00 | 0.00 | 0.00 | 81 | 1011.3 |
| 20260504180141 | 60 | 241 | 12.0 | 22.0 | 0.00 | 0.00 | 0.00 | 80 | 1011.4 |
| 20260504174540 | 61 | 189 | 11.0 | 24.0 | 0.00 | 0.00 | 0.00 | 81 | 1011.6 |
| 20260504173039 | 61 | 231 | 10.0 | 22.0 | 0.00 | 0.00 | 0.00 | 78 | 1011.7 |
| 20260504171536 | 61 | 249 | 12.0 | 23.0 | 0.00 | 0.00 | 0.00 | 79 | 1012.1 |
| 20260504160107 | 61 | 174 | 11.0 | 20.0 | 0.00 | 0.00 | 0.00 | 76 | 1012.7 |
| 20260504140111 | 59 | 219 | 9.0 | 21.0 | 0.00 | 0.00 | 0.00 | 75 | 1013.5 |
| 20260504120121 | 54 | 239 | 15.0 | 20.0 | 0.00 | 0.00 | 0.00 | 79 | 1014.7 |
| 20260504090115 | 51 | 233 | 20.0 | 27.0 | 0.00 | 0.00 | 0.00 | 77 | 1014.5 |
| 20260504081547 | 52 | 243 | 18.0 | 26.0 | 0.00 | 0.00 | 0.00 | 73 | 1014.6 |
| 20260504070122 | 52 | 229 | 11.0 | 16.0 | 0.00 | 0.00 | 0.00 | 68 | 1014.0 |
| 20260504050118 | 52 | 254 | 12.0 | 18.0 | 0.00 | 0.00 | 0.00 | 63 | 1013.7 |
| 20260504044543 | 52 | 274 | 10.0 | 17.0 | 0.00 | 0.00 | 0.00 | 68 | 1013.7 |
| 20260504043046 | 52 | 247 | 13.0 | 18.0 | 0.00 | 0.00 | 0.00 | 66 | 1013.6 |
| 20260504041539 | 52 | 255 | 13.0 | 17.0 | 0.00 | 0.00 | 0.00 | 64 | 1013.3 |
| 20260504040037 | 52 | 240 | 14.0 | 18.0 | 0.00 | 0.00 | 0.00 | 62 | 1013.1 |
| 20260504034517 | 53 | 234 | 10.0 | 15.0 | 0.00 | 0.00 | 0.00 | 64 | 1013.0 |
| 20260504033013 | 53 | 249 | 10.0 | 18.0 | 0.00 | 0.00 | 0.00 | 65 | 1013.0 |
| 20260504031514 | 53 | 255 | 11.0 | 17.0 | 0.00 | 0.00 | 0.00 | 62 | 1013.0 |
| 20260504030111 | 53 | 250 | 13.0 | 18.0 | 0.00 | 0.00 | 0.00 | 63 | 1012.9 |
| 20260504024557 | 53 | 259 | 12.0 | 16.0 | 0.00 | 0.00 | 0.00 | 63 | 1013.0 |
| 20260504023049 | 53 | 252 | 10.0 | 15.0 | 0.00 | 0.00 | 0.00 | 64 | 1013.0 |
| 20260504021547 | 54 | 251 | 11.0 | 16.0 | 0.00 | 0.00 | 0.00 | 62 | 1013.1 |
| 20260504020034 | 54 | 236 | 10.0 | 15.0 | 0.00 | 0.00 | 0.00 | 62 | 1013.0 |
| 20260504014534 | 54 | 251 | 9.0 | 16.0 | 0.00 | 0.00 | 0.00 | 63 | 1013.0 |
| 20260504013025 | 55 | 236 | 9.0 | 14.0 | 0.00 | 0.00 | 0.00 | 63 | 1012.9 |
| 20260504011522 | 55 | 247 | 9.0 | 14.0 | 0.00 | 0.00 | 0.00 | 60 | 1012.6 |
| 20260504010004 | 55 | 256 | 12.0 | 16.0 | 0.00 | 0.00 | 0.00 | 59 | 1012.4 |
| 20260504004502 | 55 | 260 | 10.0 | 14.0 | 0.00 | 0.00 | 0.00 | 55 | 1012.3 |
| 20260504003102 | 56 | 257 | 9.0 | 12.0 | 0.00 | 0.00 | 0.00 | 56 | 1012.1 |
| 20260504001602 | 56 | 240 | 9.0 | 13.0 | 0.00 | 0.00 | 0.00 | 56 | 1012.0 |
| 20260504000101 | 57 | 271 | 6.0 | 11.0 | 0.00 | 0.00 | 0.00 | 55 | 1011.8 |
| 20260503234538 | 58 | 255 | 5.0 | 10.0 | 0.00 | 0.00 | 0.00 | 52 | 1011.7 |
| 20260503233038 | 58 | 258 | 4.0 | 11.0 | 0.00 | 0.00 | 0.00 | 49 | 1011.5 |
| 20260503231536 | 59 | 286 | 5.0 | 16.0 | 0.00 | 0.00 | 0.00 | 46 | 1011.6 |
| 20260503230017 | 59 | 278 | 8.0 | 18.0 | 0.00 | 0.00 | 0.00 | 47 | 1011.5 |
| 20260503224512 | 59 | 276 | 12.0 | 19.0 | 0.00 | 0.00 | 0.00 | 47 | 1011.5 |
| 20260503223010 | 59 | 347 | 12.0 | 20.0 | 0.00 | 0.00 | 0.00 | 43 | 1011.2 |
| 20260503221506 | 59 | 295 | 10.0 | 24.0 | 0.00 | 0.00 | 0.00 | 50 | 1011.3 |
| 20260503220108 | 59 | 278 | 10.0 | 24.0 | 0.00 | 0.00 | 0.00 | 47 | 1011.2 |
| 20260503214549 | 58 | 270 | 13.0 | 24.0 | 0.00 | 0.00 | 0.00 | 45 | 1011.1 |
| 20260503213045 | 58 | 274 | 13.0 | 28.0 | 0.00 | 0.00 | 0.00 | 49 | 1011.1 |
| 20260503211558 | 58 | 319 | 11.0 | 22.0 | 0.00 | 0.00 | 0.00 | 45 | 1011.0 |
| 20260503210022 | 58 | 334 | 11.0 | 22.0 | 0.00 | 0.00 | 0.00 | 48 | 1010.9 |
| 20260503204520 | 58 | 285 | 13.0 | 25.0 | 0.00 | 0.00 | 0.00 | 46 | 1010.8 |
| 20260503203019 | 57 | 304 | 13.0 | 24.0 | 0.00 | 0.00 | 0.00 | 45 | 1010.8 |
| 20260503201517 | 57 | 293 | 13.0 | 22.0 | 0.00 | 0.00 | 0.00 | 47 | 1010.8 |
| 20260503200119 | 56 | 283 | 13.0 | 25.0 | 0.00 | 0.00 | 0.00 | 46 | 1010.9 |
| 20260503194604 | 56 | 357 | 13.0 | 28.0 | 0.00 | 0.00 | 0.00 | 48 | 1011.1 |
| 20260503193102 | 56 | 316 | 12.0 | 24.0 | 0.00 | 0.00 | 0.00 | 49 | 1011.1 |
| 20260503191555 | 56 | 295 | 14.0 | 23.0 | 0.00 | 0.00 | 0.00 | 51 | 1011.4 |
| 20260503190049 | 55 | 309 | 13.0 | 25.0 | 0.00 | 0.00 | 0.00 | 56 | 1011.5 |